COSMOS 952 DEB

Satellite information

Favourite Embed

Satellite Type and Status

DEBRISIN ORBIT

Key statistics

Satellite COSMOS 952 DEB at a glance.

Uptime

17462

Days in orbit

Revolutions

≈ 13.9

Per day

Orbit

LEO

Low Earth Orbit

Inclination

64.9

Latest

Satellite identification and parameters

Extended collection of information and parameters for COSMOS 952 DEB.

Object identification

Identified? True

Debris? True

Object name: COSMOS 952 DEB

International designator: 1977-088D

Object number (NORAD): 44567

Object ID (CCSDS): 44567

Country: COMMONWEALTH OF INDEPENDENT STATES (CIS)

Current information (Y/N): Y

RCS size: SMALL

Orbital parameters

Period: 103.933 minutes

Inclination: 64.9363 deg

SMA: 7322.56 km

Apoapsis: 970.912 km

Periapsis: 917.939 km

RAAN: 300.6769 deg

Eccentricy: 0.0036171

Argument of periapsis: 151.6203 deg

Mean anomaly: 289.2755 deg

Mean motion: 13.85505678 rev/day

Mean motion (dot): 0.00000074 rev/day2

B* drag term: 0.00014227 1/REarth

Two-line elements (TLE)

Creation date: July 4, 2025, 3:20 a.m.

Reference frame: TEME

Reference center: EARTH

Epoch: July 3, 2025, 7:10 p.m. UTC

TLE line 0: 0 COSMOS 952 DEB

TLE line 1: 1 44567U 77088D 25184.79863722 .00000074 00000-0 14227-3 0 9990

TLE line 2: 2 44567 64.9363 300.6769 0036171 151.6203 289.2755 13.85505678587383

Live tracking on map

Real-time ground track for satellite COSMOS 952 DEB.

In-orbit conjunctions

A list of the most updated potential collisions computed for object COSMOS 952 DEB.

Target Orbit TCA Probability of collision Miss distance Type
COSMOS 1506 LEO 2024-08-19 20:50:25 0.0001513444 575.0 (m) PAYLOAD
SL-8 R/B LEO 2024-06-11 19:04:29 0.0001760783 268.0 (m) ROCKET BODY

Associated space launch

Active radar satellite for ocean surveillance powered by a nuclear reactor.

COSMOS 952 DEB was lifted into orbit during the mission ‘Tsiklon-2 | US-A 14’, on board a Tsiklon-2 space rocket.

The launch took place on Sept. 16, 1977, 2:25 p.m. from 90.

For more information about the launch, click the button.

Launch to space Tsiklon-2 | US-A 14
Tsiklon-2 | US-A 14

Agency: N/A

Status: Launch Successful

Launch date: Sept. 16, 1977, 2:25 p.m. UTC

Rocket: Tsiklon-2

Launch pad: 90

Location: Baikonur Cosmodrome, Republic of Kazakhstan

...

Latest news about this satellite

There are no fresh news available about this satellite. Check back as we update our databases every day.


Newsletter sign-up

Weekly statistics, charts and insights to help you stay on top of the space industry.